{"data":{"norad_id":65190,"epoch":"2026-09-20T22:00:03.000096Z","epoch_age_seconds":84369,"freshness":"FRESH","line1":"1 65190U 25175S   26263.91670139  .00029896  00000+0  92544-3 0  9996","line2":"2 65190  97.2848 132.8680 0002147  93.1233 312.7432 15.33418257  5673","mean_motion":15.33418257,"eccentricity":0.0002147,"inclination_deg":97.2848,"raan_deg":132.868,"arg_perigee_deg":93.1233,"mean_anomaly_deg":312.7432,"bstar":0.00092544,"rev_number":567,"period_min":93.90784239241,"perigee_km":464.1533887702,"apogee_km":467.09209920426,"semimajor_km":6843.7597439872,"source":"CELESTRAK","updated_at":"2026-09-21T09:00:35.531046Z"}}